Tracking 19562 objects as of 23-Mar-2019
HD Live streaming from Space Station
objects crossing your sky now

FENGYUN 1C DEB

Track FENGYUN 1C DEB now!
10-day predictions


NORAD ID: 31782
Int'l Code: 1999-025CGH
Perigee: 736.0 km
Apogee: 860.6 km
Inclination: 98.7 °
Period: 100.7 minutes
Semi major axis: 7169 km
RCS: 0.0103 m2 (small)
Launch date: May 10, 1999
Source: People's Republic of China (PRC)
Launch site: Taiyaun Space Center, China (TSC)

Note: This is SATELLITE DEBRIS
aabbcc
Your satellite tracking list
Your tracking list is empty




NASA's NSSDC Master Catalog

Two Line Element Set (TLE):
1 31782U 99025CGH 19080.07481660  .00000124  00000-0  62462-4 0  9997
2 31782  98.6879 181.7672 0086945   5.8958 118.8740 14.30170652616055
Source of the keplerian elements: AFSPC